When you browse on this site, cookies collect data to enhance your experience and personalize the content and advertising you see.
Visit our Privacy Policy to learn more. By continuing to use the site, you agree to this use of cookies and data.
  • In Romania
  • List of Countries
  • For 7 days
  • Water Temperature
  • Weather Map
  • Weather Widgets
  • user-avatar
    Login

    Hourly Weather Kyrdzhali

    Today, 25 January, Saturday

    Time Temperature Precipitation Wind Pressure Humidity
    00:00 +2°C° 0 mm 1 mps 734 mmHg 83%
    01:00 +2°C° 0 mm 1 mps 733 mmHg 82%
    02:00 +2°C° 0 mm 1 mps 733 mmHg 81%
    03:00 +2°C° 0 mm 1 mps 733 mmHg 80%
    04:00 +2°C° 0 mm 1 mps 732 mmHg 78%
    05:00 +2°C° 0 mm 1 mps 732 mmHg 77%
    06:00 +2°C° 0 mm 1 mps 732 mmHg 76%
    07:00 +2°C° 0 mm 1 mps 732 mmHg 74%
    08:00 +3°C° 0 mm 1 mps 732 mmHg 74%
    09:00 +4°C° 0 mm 2 mps 732 mmHg 67%
    10:00 +6°C° 0 mm 2 mps 733 mmHg 60%
    11:00 +8°C° 0 mm 2 mps 733 mmHg 53%
    12:00 +8°C° 0 mm 2 mps 732 mmHg 53%
    13:00 +9°C° 0 mm 2 mps 732 mmHg 52%
    14:00 +10°C° 0 mm 2 mps 732 mmHg 52%
    15:00 +9°C° 0 mm 2 mps 732 mmHg 59%
    16:00 +7°C° 0 mm 2 mps 731 mmHg 66%
    17:00 +6°C° 0 mm 2 mps 731 mmHg 74%
    18:00 +5°C° 0 mm 2 mps 731 mmHg 76%
    19:00 +4°C° 0 mm 2 mps 732 mmHg 79%
    20:00 +5°C° 0 mm 1 mps 732 mmHg 82%
    21:00 +5°C° 0 mm 1 mps 732 mmHg 81%
    22:00 +4°C° 0 mm 1 mps 732 mmHg 81%
    23:00 +4°C° 0 mm 1 mps 732 mmHg 80%

    Tomorrow, 26 January, Sunday

    Time Temperature Precipitation Wind Pressure Humidity
    00:00 +4°C° 0 mm 1 mps 732 mmHg 79%
    01:00 +4°C° 0 mm 1 mps 732 mmHg 77%
    02:00 +4°C° 0 mm 1 mps 732 mmHg 76%
    03:00 +4°C° 0 mm 1 mps 731 mmHg 76%
    04:00 +4°C° 0 mm 1 mps 731 mmHg 75%
    05:00 +4°C° 0 mm 1 mps 731 mmHg 75%
    06:00 +4°C° 0 mm 1 mps 731 mmHg 74%
    07:00 +4°C° 0 mm 1 mps 731 mmHg 73%
    08:00 +4°C° 0 mm 1 mps 731 mmHg 72%
    09:00 +6°C° 0 mm 1 mps 732 mmHg 66%
    10:00 +8°C° 0 mm 1 mps 732 mmHg 60%
    11:00 +10°C° 0 mm 1 mps 732 mmHg 55%
    12:00 +11°C° 0 mm 1 mps 732 mmHg 54%
    13:00 +10°C° 0 mm 2 mps 732 mmHg 53%
    14:00 +12°C° 0 mm 2 mps 731 mmHg 52%
    15:00 +10°C° 0 mm 2 mps 731 mmHg 58%
    16:00 +9°C° 0 mm 2 mps 731 mmHg 64%
    17:00 +9°C° 0 mm 1 mps 731 mmHg 70%
    18:00 +8°C° 0 mm 1 mps 731 mmHg 73%
    19:00 +8°C° 0 mm 1 mps 731 mmHg 76%
    20:00 +7°C° 0 mm 1 mps 731 mmHg 79%
    21:00 +7°C° 0 mm 1 mps 730 mmHg 80%
    22:00 +6°C° 0 mm 1 mps 730 mmHg 81%
    23:00 +6°C° 0 mm 1 mps 730 mmHg 83%

    Day after tomorrow, 27 January, Monday

    Time Temperature Precipitation Wind Pressure Humidity
    00:00 +6°C° 0 mm 1 mps 730 mmHg 83%
    01:00 +6°C° 0 mm 1 mps 730 mmHg 84%
    02:00 +6°C° 0 mm 1 mps 729 mmHg 85%
    03:00 +6°C° 0 mm 1 mps 729 mmHg 86%
    04:00 +6°C° 0 mm 1 mps 729 mmHg 87%
    05:00 +6°C° 0 mm 1 mps 728 mmHg 88%
    06:00 +5°C° 0 mm 0 mps 728 mmHg 88%
    07:00 +5°C° 0 mm 0 mps 728 mmHg 88%
    08:00 +5°C° 0 mm 0 mps 728 mmHg 88%
    09:00 +7°C° 0 mm 1 mps 728 mmHg 85%
    10:00 +9°C° 0 mm 1 mps 728 mmHg 83%
    11:00 +10°C° 0 mm 1 mps 728 mmHg 80%
    12:00 +10°C° 0.1 mm 1 mps 728 mmHg 81%
    13:00 +10°C° 0.1 mm 1 mps 727 mmHg 82%
    14:00 +10°C° 0.1 mm 1 mps 727 mmHg 83%
    15:00 +10°C° 0.3 mm 1 mps 726 mmHg 87%
    16:00 +9°C° 0.3 mm 1 mps 726 mmHg 90%
    17:00 +8°C° 0.3 mm 1 mps 726 mmHg 93%
    18:00 +8°C° 1.5 mm 1 mps 725 mmHg 94%
    19:00 +7°C° 1.5 mm 1 mps 725 mmHg 95%
    20:00 +7°C° 1.5 mm 1 mps 725 mmHg 96%
    21:00 +7°C° 2.2 mm 1 mps 725 mmHg 96%
    22:00 +7°C° 2.2 mm 1 mps 725 mmHg 97%
    23:00 +7°C° 2.2 mm 1 mps 725 mmHg 97%

    28 January, Tuesday

    Time Temperature Precipitation Wind Pressure Humidity
    00:00 +6°C° 2.9 mm 2 mps 724 mmHg 97%
    01:00 +5°C° 2.9 mm 2 mps 724 mmHg 97%
    02:00 +5°C° 2.9 mm 2 mps 724 mmHg 97%
    03:00 +5°C° 0.9 mm 2 mps 724 mmHg 96%
    04:00 +5°C° 0.9 mm 2 mps 723 mmHg 96%
    05:00 +4°C° 0.9 mm 3 mps 723 mmHg 95%
    06:00 +5°C° 0.1 mm 2 mps 723 mmHg 95%
    07:00 +5°C° 0.1 mm 2 mps 724 mmHg 94%
    08:00 +5°C° 0.1 mm 2 mps 724 mmHg 94%
    09:00 +6°C° 0 mm 2 mps 724 mmHg 88%
    10:00 +7°C° 0 mm 2 mps 724 mmHg 81%
    11:00 +9°C° 0 mm 2 mps 724 mmHg 75%
    12:00 +9°C° 0 mm 2 mps 724 mmHg 71%
    13:00 +10°C° 0 mm 2 mps 724 mmHg 68%
    14:00 +11°C° 0 mm 1 mps 724 mmHg 65%
    15:00 +11°C° 0 mm 1 mps 723 mmHg 69%
    16:00 +10°C° 0 mm 1 mps 723 mmHg 73%
    17:00 +10°C° 0 mm 1 mps 723 mmHg 78%
    18:00 +9°C° 0 mm 1 mps 724 mmHg 82%
    19:00 +7°C° 0 mm 2 mps 724 mmHg 86%
    20:00 +6°C° 0 mm 2 mps 724 mmHg 90%
    21:00 +6°C° 0 mm 2 mps 724 mmHg 90%
    22:00 +6°C° 0 mm 2 mps 724 mmHg 90%
    23:00 +5°C° 0 mm 2 mps 724 mmHg 90%

    29 January, Wednesday

    Time Temperature Precipitation Wind Pressure Humidity
    00:00 +5°C° 0 mm 2 mps 724 mmHg 89%
    01:00 +5°C° 0 mm 2 mps 724 mmHg 88%
    02:00 +5°C° 0 mm 2 mps 724 mmHg 87%
    03:00 +5°C° 0 mm 2 mps 723 mmHg 86%
    04:00 +5°C° 0 mm 2 mps 723 mmHg 85%
    05:00 +4°C° 0 mm 2 mps 723 mmHg 84%
    06:00 +4°C° 0 mm 2 mps 723 mmHg 84%
    07:00 +4°C° 0 mm 2 mps 723 mmHg 84%
    08:00 +4°C° 0 mm 2 mps 723 mmHg 84%
    09:00 +6°C° 0 mm 2 mps 723 mmHg 79%
    10:00 +8°C° 0 mm 3 mps 723 mmHg 73%
    11:00 +10°C° 0 mm 4 mps 723 mmHg 67%
    12:00 +10°C° 0 mm 4 mps 723 mmHg 64%
    13:00 +11°C° 0 mm 4 mps 722 mmHg 62%
    14:00 +12°C° 0 mm 5 mps 722 mmHg 60%
    15:00 +11°C° 0 mm 4 mps 722 mmHg 65%
    16:00 +10°C° 0 mm 3 mps 722 mmHg 69%
    17:00 +9°C° 0 mm 2 mps 722 mmHg 74%
    18:00 +8°C° 0 mm 2 mps 722 mmHg 78%
    19:00 +7°C° 0 mm 2 mps 722 mmHg 82%
    20:00 +6°C° 0 mm 2 mps 722 mmHg 86%
    21:00 +6°C° 0 mm 2 mps 722 mmHg 86%
    22:00 +7°C° 0 mm 1 mps 722 mmHg 87%
    23:00 +7°C° 0 mm 1 mps 722 mmHg 87%

    30 January, Thursday

    Time Temperature Precipitation Wind Pressure Humidity
    00:00 +7°C° 0 mm 1 mps 722 mmHg 87%
    01:00 +6°C° 0 mm 2 mps 722 mmHg 87%
    02:00 +5°C° 0 mm 2 mps 722 mmHg 87%
    03:00 +6°C° 0 mm 1 mps 722 mmHg 89%
    04:00 +6°C° 0 mm 1 mps 722 mmHg 91%
    05:00 +5°C° 0 mm 1 mps 722 mmHg 93%
    06:00 +5°C° 0.1 mm 1 mps 722 mmHg 93%
    07:00 +5°C° 0.1 mm 1 mps 723 mmHg 94%
    08:00 +4°C° 0.1 mm 2 mps 723 mmHg 95%
    09:00 +5°C° 0.3 mm 2 mps 724 mmHg 88%
    10:00 +5°C° 0.3 mm 2 mps 724 mmHg 82%
    11:00 +6°C° 0.3 mm 2 mps 725 mmHg 76%
    12:00 +5°C° 0.1 mm 3 mps 725 mmHg 69%
    13:00 +6°C° 0.1 mm 4 mps 725 mmHg 61%
    14:00 +6°C° 0.1 mm 5 mps 725 mmHg 53%
    15:00 +6°C° 0 mm 4 mps 725 mmHg 53%
    16:00 +5°C° 0 mm 4 mps 726 mmHg 53%
    17:00 +5°C° 0 mm 3 mps 726 mmHg 52%
    18:00 +4°C° 0 mm 3 mps 727 mmHg 55%
    19:00 +4°C° 0 mm 2 mps 727 mmHg 57%
    20:00 +3°C° 0 mm 2 mps 728 mmHg 60%
    21:00 +2°C° 0 mm 2 mps 728 mmHg 61%
    22:00 +2°C° 0 mm 2 mps 729 mmHg 63%
    23:00 +2°C° 0 mm 2 mps 729 mmHg 64%
    Show more